LoadingReadyRun

LoadingReadyRun

Views:
133,269,015
Subscribers:
156,000
Videos:
4,045
Duration:
73:18:17:34
Canada
Canada

LoadingReadyRun is a Canadian content creator on YouTube with around 156 thousand subscribers. He published more than 4.05 thousand videos which altogether total approximately 133.27 million views.

Created on ● Channel Link: https://www.youtube.com/channel/UCwjN2uVdL9A0i3gaIHKFzuA





All Videos by LoadingReadyRun



PublishedVideo TitleDurationViewsCategoryGame
2015-04-08CheckPoint 184 - Bloodleaks6:1823,134
2015-04-07Crapshots Ep233 - The Dice0:3371,525
2015-04-05TTC 80 - Commander Rules & DTK Preview Draft48:0320,244Preview
2015-04-03LRRcast - Guilty Pleasures Part 231:598,682
2015-04-03Crapshots Ep232 - The Fly0:2945,491
2015-04-01Feed Dump 198 - Knife Time!6:5285,056
2015-03-31Crapshots Ep231 - The Dew0:2445,791
2015-03-31CheckPoint 183 - Rated N for Neglect6:5425,246
2015-03-29TTC 79 - Special Guest Dan Emmons50:4012,846
2015-03-27LRRcast - Guilty Pleasures Part 159:1615,826
2015-03-27Crapshots Ep230 - The Film 20:2743,165
2015-03-25Crapshots Ep229 - The Psychic0:2846,411
2015-03-25Feed Dump 197 - Things Get Weird with Andy7:4273,943
2015-03-23CheckPoint 182 - Kojima Repeating6:0124,820
2015-03-23TTC 78 - Dragons Prerelease Report1:12:0321,013
2015-03-22LT - Free Candy [commodoreHUSTLE]9:1052,294
2015-03-20LRRcast - Dungeons & Dragons Stories45:1122,214
2015-03-20Crapshots Ep228 - The Spray0:3354,098
2015-03-20Temple of the Lava Bears Post-Finale Q&A42:3013,393
2015-03-18Feed Dump 196 - This is America6:1264,962
2015-03-18CheckPoint 181 - Cities Fighting Pirates5:1921,617
2015-03-18Crapshots Ep227 - The Shotgun0:2552,463
2015-03-16Temple of the Lava Bears Finale4:02:0346,381
2015-03-14LRRcast - FoodCast47:2910,144
2015-03-14TTC 77 - Fate Reforged Nicknames59:2562,845
2015-03-14Loading Time - Staggeringly Fast Loans9:2534,441
2015-03-13Crapshots Ep226 - The Responsibility0:4154,570
2015-03-12TTC 76 - More DTK Previews & Tiny Leaders59:3721,581
2015-03-12Exclusive Dragons of Tarkir Spoiler Cards2:0644,477
2015-03-11Feed Dump 195 - Do a Tesco7:0057,116
2015-03-11Crapshots Ep225 - The Rent0:2549,169
2015-03-07LRRcast - Monthly Spending41:048,781
2015-03-07TTC 75 - Dragons of Tarkir Previews36:2519,459
2015-03-06Crapshots Ep224 - The Talk 20:4645,658
2015-03-05Crapshots Ep223 - The Missionary0:3075,243
2015-03-04Feed Dump 194 - Random Acts of Toilet6:1747,271
2015-03-03CheckPoint 180 - Copyright Lives Forever7:2121,673World of WarCraft
2015-02-27Crapshots Ep222 - The Toast0:2763,406
2015-02-26LRRcast - The Kathleen Trivia Challenge Part 228:1312,127
2015-02-26TTC - GP Vancouver Report56:4415,277
2015-02-25Feed Dump 193 - Library Pee Sale5:4043,570
2015-02-25Crapshots Ep221 - The Call 30:1948,259
2015-02-23CheckPoint 179 - Mars Needs Writers5:3022,856Fallout
2015-02-21Temple of the Lava Bears Ep2046:1523,178
2015-02-19Crapshots Ep220 - The Bush0:3032,023
2015-02-19LRRcast - The Kathleen Trivia Challenge Part 135:3510,969
2015-02-18Feed Dump 192 - Naked Mayonnaise Assailant7:3051,735
2015-02-18Crapshots Ep219 - The Training0:4863,736
2015-02-16TTC - Fate Reforged Draft Update52:1415,048
2015-02-16Loading Time - Dirty Money6:2319,573
2015-02-14Crapshots Ep218 - The Professor1:2389,664
2015-02-14Temple of the Lava Bears Ep1956:0623,658
2015-02-13LRRcast - Odd Jobs Part 250:2614,393
2015-02-12TTC - Vintage46:3212,807
2015-02-11Feed Dump 191 - Hot Dump 3: Penis Edition6:3745,605
2015-02-10Crapshots Ep217 - The Fog0:3252,949
2015-02-07Temple of the Lava Bears Ep1847:3624,458
2015-02-05Crapshots Ep216 - The Piles0:3190,658
2015-02-04LRRcast - Odd Jobs Part 11:03:3717,890
2015-02-04Feed Dump 190 - If Only We Had Tarp6:1452,187
2015-02-04Crapshots Ep215 - The Morph0:2298,279
2015-02-03Loading Time - Cleaning Day [cH]11:1734,190
2015-02-03Loading Time - Sorry to Interrupt5:0221,511
2015-02-03CheckPoint 178 - Nintendo Wants that YouTube Dollar5:2122,080Team Fortress 2
2015-01-31TTC - Mailbag42:1014,308
2015-01-31Temple of the Lava Bears Ep1744:3124,578
2015-01-30Crapshots Ep214 - The Hat0:1959,654
2015-01-29LRRcast - Injuries Part 241:4911,102
2015-01-29TTC - Eternal Formats & Bannings51:4516,445
2015-01-28Feed Dump 189 - The Less You Know5:2746,608
2015-01-27Crapshots Ep213 - The Rain0:3175,759
2015-01-25Temple of the Lava Bears Ep161:04:3027,239
2015-01-23LRRcast - Injuries Part 148:3613,413
2015-01-22Crapshots Ep212 - The Culture0:2249,601
2015-01-21Feed Dump 188 - That's Why They Call it a Chub6:0051,123
2015-01-21TTC - Fate Reforged Prerelease Report53:2516,608
2015-01-20Crapshots Ep211 - The Family0:1762,335
2015-01-19CheckPoint 177 - Slay Millions of Dragons5:4123,137
2015-01-17Temple of the Lava Bears Ep1541:3226,458
2015-01-16CheckPoint 176 - News Refurbished by GameStop5:1121,496
2015-01-16Crapshots Ep210 - The Posession0:4271,764
2015-01-15LRRcast - Resolutions Part 227:345,187
2015-01-15Crapshots Ep209 - The Talk0:4460,113
2015-01-14Feed Dump 187 - The Return of Evil Alex4:2858,944
2015-01-11TTC - Fate Reforged Spoilers Ep.244:0016,764
2015-01-10Loading Time - Math of the Montage4:0913,501
2015-01-08Exclusive Fate Reforged Spoiler Card1:1140,709
2015-01-08LRRcast - Resolutions Part 135:126,681
2015-01-07Feed Dump 186 - What Do Possums Eat?6:1042,561
2015-01-07Loading Time - A Fortunate Teller9:0313,663
2015-01-06CheckPoint 175 - Metal Gear Chicken5:5219,628
2015-01-05LRRcast - Best of 2014 Part 3 [Anime Edition]1:23:066,705
2015-01-05Crapshots Ep208 - The Theft0:2355,053
2015-01-04TTC - Fate Reforged Spoilers51:1622,556
2015-01-04Crapshots Ep207 - The Orb0:3249,504
2015-01-03Kathleen Commercial - Persona51:0613,022
2015-01-02Temple of the Lava Bears Ep131:05:1330,919
2015-01-02Crapshots Ep206 - The Link0:2148,126
2014-12-31CheckPoint 174 - A Final Fantasy "F*** You!"5:1224,992
2014-12-31Feed Dump 185 - I've Seen That Anime!5:0773,063